{"data":{"norad_id":66472,"epoch":"2026-05-25T05:14:25.889280Z","epoch_age_seconds":59376,"freshness":"FRESH","line1":"1 66472U 25262S   26145.21835520  .00013751  00000+0  50818-3 0  9997","line2":"2 66472  43.0007 223.7024 0001538 256.8477 103.2203 15.27587521 30611","mean_motion":15.27587521,"eccentricity":0.0001538,"inclination_deg":43.0007,"raan_deg":223.7024,"arg_perigee_deg":256.8477,"mean_anomaly_deg":103.2203,"bstar":0.00050818,"rev_number":3061,"period_min":94.266284596076,"perigee_km":481.97132859447,"apogee_km":484.08182251031,"semimajor_km":6861.1635755524,"source":"CELESTRAK","updated_at":"2026-05-25T13:38:21.238480Z"}}